Location: Gampelen
(47.0150°N, 7.0599°E)
Time: 08:48:28
(UTC+00:00)

Daily predictions for brighter satellites

Satellite Brightness Start Highest point End
(mag) Time Altitude Azimuth Time Altitude Azimuth Time Altitude Azimuth
Cosmos 1833 Rocket 2.9 19:47:20 10° NNW 19:52:57 73° WSW 19:58:32 10° SSE
Tsikada Rocket 4.5 19:47:33 10° SSW 19:53:41 67° WNW 19:59:50 10° N
Cosmos 1943 Rocket 3.9 19:52:05 10° SE 19:54:42 14° E 19:57:20 10° ENE
STARLINK-1109 3.8 19:50:37 10° WNW 19:54:45 68° SW 19:58:52 10° SE
STARLINK-1123 4.4 19:52:52 10° WNW 19:56:55 50° NNE 20:00:57 10° E
STARLINK-1246 3.6 19:53:31 10° WSW 19:57:40 86° SE 20:01:50 10° ENE
Cosmos 2082 Rocket 2.3 19:53:53 10° NNW 19:59:38 82° ENE 20:05:20 10° SSE
STARLINK-1091 3.8 19:55:35 10° WNW 19:59:42 63° SW 20:03:46 10° SE
IGS 5A 4.4 19:56:08 10° SE 19:59:52 33° ENE 20:03:38 10° N
Cosmos 1420 Rocket 4.0 19:55:00 10° SSW 20:00:13 89° ESE 20:05:26 10° NNE
Cosmos 1452 Rocket 3.6 19:55:17 10° S 20:00:30 64° ESE 20:05:44 10° NNE
Cosmos 332 Rocket 4.1 19:56:06 10° S 20:00:49 49° ESE 20:05:33 10° NNE
DMSP B5D2-2 4.3 19:55:31 10° NNE 20:00:50 78° WNW 20:06:05 10° SSW
BREEZE-M DEB 3.8 19:59:24 10° SSE 20:00:53 15° SE 20:02:54 10° E
STARLINK-1097 4.3 19:57:52 10° WNW 20:01:57 52° NNE 20:06:00 10° E
Intercosmos 24 3.8 19:59:07 10° N 20:02:38 58° ENE 20:06:25 10° SSE
STARLINK-1224 3.7 19:58:29 10° WSW 20:02:38 89° NNW 20:06:48 10° ENE
STARLINK-1072 3.9 20:00:36 10° WNW 20:04:41 58° SW 20:08:45 10° SE
MOS 1 Rocket 4.2 20:02:15 10° N 20:06:29 49° WNW 20:10:37 10° SW
STARLINK-1099 4.2 20:02:51 10° WNW 20:06:56 54° NNE 20:11:00 10° E
Cosmos 1461 3.2 20:03:08 10° SSW 20:07:03 44° ESE 20:11:12 10° NE
STARLINK-1225 3.7 20:03:28 10° WSW 20:07:38 84° NNW 20:11:48 10° ENE
Okean 3 3.6 20:05:06 10° S 20:09:23 85° W 20:13:44 10° N
STARLINK-1096 4.0 20:05:36 10° WNW 20:09:39 54° SW 20:13:39 10° SE
Cosmos 2369 Rocket 3.9 20:08:00 10° SE 20:10:36 13° E 20:13:12 10° ENE
SAR-Lupe-2 4.4 20:08:09 10° NNE 20:11:25 31° E 20:14:38 10° SSE
STARLINK-1104 4.1 20:07:49 10° WNW 20:11:55 57° NNE 20:16:00 10° ESE
STARLINK-1230 3.8 20:08:27 10° WSW 20:12:36 79° NNW 20:16:46 10° ENE
NOSS 2-2 (C) 4.3 20:10:33 10° S 20:13:25 23° ESE 20:16:28 10° ENE
STARLINK-1079 4.1 20:10:35 10° WNW 20:14:36 50° SW 20:18:26 11° SE
STARLINK-1144 4.1 20:12:48 10° WNW 20:16:55 60° NNE 20:21:01 10° ESE
Cosmos 2221 Rocket 3.8 20:12:46 10° SSW 20:17:17 78° W 20:21:52 10° N
SL-4 R/B 3.1 20:14:47 10° WNW 20:17:21 25° WSW 20:19:44 10° S
STARLINK-1243 3.9 20:13:27 10° WSW 20:17:36 75° NNW 20:21:45 10° ENE
SPOT 5 4.1 20:14:23 10° SE 20:19:03 34° ENE 20:23:51 10° N
STARLINK-1116 4.2 20:15:35 10° WNW 20:19:34 46° SW 20:23:13 12° SSE
NOSS 8 (F) 4.0 20:17:24 10° SSW 20:20:39 76° SE 20:23:41 10° NE
Meteor 1-13 Rocket 4.2 20:15:18 10° S 20:20:54 80° E 20:26:42 10° NNE
STARLINK-1103 4.0 20:17:46 10° WNW 20:21:54 63° NNE 20:26:01 10° ESE
STARLINK-1236 4.0 20:18:26 10° WSW 20:22:34 70° NNW 20:26:43 10° ENE
ERS-1 Rocket 3.7 20:19:40 11° SE 20:24:11 41° ENE 20:28:54 10° N
STARLINK-1101 3.9 20:22:45 10° WNW 20:26:53 67° NNE 20:31:01 10° ESE
Cosmos 1066 Rocket 4.4 20:23:27 10° SSE 20:28:36 49° E 20:33:45 10° NNE
STARLINK-1094 4.5 20:25:36 10° WNW 20:29:29 39° SW 20:32:47 13° SSE
USA 245 2.3 20:27:56 13° SSE 20:30:32 73° ENE 20:33:05 10° N
USA 238 DEB 4.3 20:24:17 10° NW 20:31:18 54° NE 20:38:25 10° ESE
USA 238 4.4 20:24:23 10° NW 20:31:23 53° NE 20:38:32 10° ESE
STARLINK-1102 3.8 20:27:44 10° WNW 20:31:53 71° NNE 20:35:48 11° ESE
STARLINK-1269 4.2 20:28:26 10° WSW 20:32:33 63° NNW 20:36:41 10° ENE
Cosmos 2278 Rocket 3.4 20:28:03 10° SW 20:33:29 46° NW 20:38:59 10° NNE
TSX-5 4.3 20:27:58 10° SSW 20:33:39 76° ESE 20:38:01 10° NNE
Resurs 01 Rocket 2.7 20:29:51 10° S 20:34:05 43° W 20:38:21 10° NNW
Okean 1 Rocket 3.3 20:29:47 10° N 20:34:12 56° ENE 20:37:54 14° SSE
Cosmos 1805 4.2 20:30:51 10° N 20:34:25 32° ENE 20:37:07 15° SE
Cosmos 1741 Rocket 4.2 20:29:36 10° NNW 20:34:49 74° WSW 20:39:48 11° SSE
Okean 2 Rocket 4.0 20:30:37 10° NNW 20:34:52 46° W 20:39:04 10° SSW
Nadezhda 4 Rocket 4.2 20:29:09 10° SSE 20:35:05 54° E 20:41:01 10° NNE
GPS 2-04 Rocket1 4.4 20:33:26 10° SSW 20:35:09 13° S 20:35:57 12° S
STARLINK-1111 3.7 20:32:42 10° WNW 20:36:52 75° NNE 20:40:34 13° ESE
STARLINK-1200 4.3 20:33:26 10° WSW 20:37:31 60° NNW 20:41:39 10° ENE
MetOp-B 4.4 20:32:34 10° S 20:37:54 71° WSW 20:43:15 10° NNW
STARLINK-1073 3.7 20:37:41 10° WNW 20:41:52 80° NNE 20:45:22 14° ESE
SL-8 R/B 3.7 20:37:03 10° WNW 20:41:53 81° SSW 20:46:17 12° ESE
STARLINK-1192 4.3 20:38:27 10° W 20:42:33 57° NNW 20:46:38 10° ENE
Cosmos 2279 Rocket 4.4 20:36:45 10° NNW 20:42:54 63° W 20:49:01 10° S
Cosmos 1850 Rocket 4.5 20:39:06 10° NNW 20:44:22 60° WSW 20:49:25 11° S
Cosmos 371 Rocket 4.2 20:40:38 10° SW 20:45:22 51° WNW 20:50:09 10° NNE
ATLAS 3B CENTAUR R/B 4.2 20:36:10 10° SW 20:46:23 23° S 20:50:57 15° SSE
STARLINK-1121 3.6 20:42:40 10° WNW 20:46:50 84° NNE 20:50:08 16° ESE
SL-4 R/B 3.5 20:43:18 10° S 20:46:57 22° SE 20:50:41 10° E
Cosmos 1110 Rocket 4.0 20:42:19 10° S 20:47:26 65° ESE 20:52:34 10° NNE
STARLINK-1244 4.4 20:43:27 10° W 20:47:32 54° NNW 20:51:37 10° ENE
Terra 2.5 20:44:22 15° SE 20:47:51 40° ENE 20:52:18 10° N
Spot 2 Rocket 3.7 20:44:03 10° S 20:49:03 68° WSW 20:54:05 10° NNW
Cosmos 2151 Rocket 4.5 20:45:15 10° NNW 20:49:37 48° W 20:53:58 10° SSW
SPOT 1/Viking Rocket 3.5 20:45:17 13° SSE 20:49:54 90° NE 20:55:05 10° NNW
Abrixas rocket 2.2 20:47:28 10° W 20:50:21 50° SSW 20:51:50 24° SE
CARTOSAT-1 3.7 20:47:49 17° SSE 20:51:03 62° ENE 20:55:19 10° N
NOSS 8 (H) 4.1 20:48:38 10° SW 20:51:48 86° WNW 20:54:52 10° NE
STARLINK-1106 3.6 20:47:40 10° WNW 20:51:50 89° NE 20:54:56 17° ESE
STARLINK-1112 3.6 20:52:37 10° WNW 20:56:47 86° SSW 20:59:41 19° ESE
Aureole 2 4.4 20:55:49 10° NNW 20:58:54 58° WSW 21:00:36 22° S
STARLINK-1128 3.6 20:57:35 10° WNW 21:01:45 80° SSW 21:04:28 21° SE
Cosmos 1331 Rocket 3.9 20:59:04 10° SSW 21:04:12 81° ESE 21:09:25 10° NNE
Aureole 2 Rocket 3.2 21:02:05 10° SW 21:05:05 45° WNW 21:07:57 10° N
STARLINK-1113 3.6 21:02:35 10° WNW 21:06:44 75° SSW 21:09:15 23° SE
Cosmos 1733 3.5 21:03:52 10° N 21:07:36 50° ENE 21:09:32 25° SE
Cosmos 1437 Rocket 4.2 21:06:25 10° SW 21:09:56 36° WNW 21:13:31 10° N
COSMOS 2455 4.5 21:09:44 14° ESE 21:10:52 15° ESE 21:14:04 10° ENE
STARLINK-1119 3.6 21:07:35 10° WNW 21:11:44 70° SSW 21:14:04 25° SE
Cosmos 1378 3.0 21:09:41 18° S 21:12:21 85° E 21:16:06 10° N
Cosmos 1302 Rocket 4.2 21:10:14 16° S 21:14:20 53° ESE 21:19:30 10° NNE
Cosmos 1271 Rocket 4.3 21:14:22 18° ESE 21:15:15 19° E 21:18:04 10° NE
USA 215 4.4 21:09:49 10° E 21:15:55 43° NNE 21:21:59 10° NW
ISS -1.2 21:15:04 10° WSW 21:16:05 11° SW 21:17:02 10° SSW
Cosmos 1242 Rocket 3.8 21:15:26 23° ESE 21:16:21 26° E 21:19:28 10° NE
STARLINK-1114 3.7 21:12:33 10° WNW 21:16:41 65° SSW 21:18:49 26° SE
MTI 4.3 21:15:12 10° NNE 21:18:13 40° E 21:18:58 33° SE
STARLINK-60 4.3 21:20:10 23° E 21:20:10 23° E 21:21:47 10° ENE
Lacrosse 5 3.9 21:15:46 10° W 21:19:00 17° WSW 21:22:07 10° SSW
Cosmos 1092 Rocket 3.9 21:15:31 16° S 21:20:34 75° E 21:26:43 10° NNE
NOSS 2-2 (D) 3.3 21:18:03 10° SW 21:21:37 76° NW 21:25:39 10° NE
STARLINK-1130 (DARKSAT) 3.7 21:17:33 10° WNW 21:21:39 60° SW 21:23:37 28° SE
CENTAUR R/B 3.4 21:16:05 10° NW 21:23:58 65° NE 21:31:08 16° SE
Cosmos 1707 4.3 21:24:35 19° ESE 21:25:22 20° E 21:28:13 10° NE
STARLINK-1084 3.8 21:22:33 10° WNW 21:26:37 56° SW 21:28:24 30° SSE
ATLAS 3B R/B 3.8 21:20:45 10° NNW 21:26:59 38° NE 21:33:22 10° ESE
SL-27 R/B 2.6 21:24:34 10° NNW 21:28:08 61° ENE 21:29:28 34° SE
NOSS 3-2 (C) 4.2 21:21:47 10° NW 21:29:15 73° NE 21:35:37 19° SE
Cosmos 1766 3.5 21:26:39 10° NNW 21:30:36 67° W 21:32:47 25° S
Cosmos 1726 4.2 21:29:14 10° NNE 21:31:34 16° ENE 21:32:50 14° E
STARLINK-1098 3.9 21:27:33 10° WNW 21:31:35 51° SW 21:33:11 32° SSE
Cosmos 1867 4.5 21:28:54 10° NNW 21:34:07 43° NE 21:38:07 16° ESE
Cosmos 2195 Rocket 4.5 21:30:46 18° S 21:35:41 83° E 21:41:58 10° N
STARLINK-1123 4.0 21:32:32 10° WNW 21:36:31 47° SW 21:37:57 33° SSE
Cosmos 1943 Rocket 2.1 21:32:00 10° SSW 21:37:33 87° ESE 21:43:11 10° NNE
NOSS 2-2 (E) 4.5 21:35:34 10° WSW 21:39:02 43° NW 21:43:04 10° NNE
NOSS 3-4 (A) 4.0 21:36:32 25° SSE 21:39:05 36° ESE 21:44:41 10° NE
NOSS 3-4 (C) 4.0 21:36:40 25° SSE 21:39:11 35° ESE 21:44:47 10° NE
STARLINK-1097 4.1 21:37:34 10° WNW 21:41:31 44° SW 21:42:45 33° S
Cosmos 2082 Rocket 4.4 21:39:27 10° WNW 21:42:58 17° W 21:46:29 10° SW
SeaSat 1 3.4 21:39:12 10° NE 21:43:30 29° ESE 21:44:34 27° SE
EO 1 Del DPAF 4.2 21:40:39 10° NE 21:44:00 29° E 21:44:29 28° ESE
STARLINK-1099 4.2 21:42:33 10° WNW 21:46:27 40° SW 21:47:31 33° S
Cosmos 1975 Rocket 3.2 21:44:36 23° SSW 21:47:21 75° W 21:51:47 10° N
STARLINK-1212 3.9 21:46:12 10° NW 21:49:12 44° NNE 21:50:47 23° E
STARLINK-1105 3.9 21:46:40 10° NW 21:49:40 44° NNE 21:51:13 23° E
STARLINK-1247 3.8 21:47:33 10° NW 21:50:35 45° NNE 21:52:06 24° E
Cosmos 292 Rocket 3.7 21:48:20 27° S 21:50:53 68° ESE 21:55:43 10° NNE
STARLINK-1227 3.8 21:48:02 10° NW 21:51:03 45° NNE 21:52:32 24° E
BREEZE-M DEB (TANK) 3.7 21:36:02 10° WSW 21:51:13 89° NNW 21:55:05 10° ENE
STARLINK-1104 4.3 21:47:34 10° WNW 21:51:24 37° SW 21:52:18 33° S
STARLINK-1226 3.8 21:48:54 10° NW 21:51:56 45° NNE 21:53:23 25° E
BREEZE-M DEB (TANK) 3.3 21:48:16 10° WNW 21:52:15 63° N 21:56:01 10° E
STARLINK-1215 3.8 21:49:47 10° NW 21:52:50 46° NNE 21:54:16 25° E
Cosmos 2369 Rocket 2.1 21:49:04 16° SSW 21:53:44 84° ESE 21:59:25 10° NNE
STARLINK-1217 3.7 21:51:37 10° NW 21:54:39 47° NNE 21:56:00 27° E
S3M 4.3 21:48:52 10° N 21:54:54 53° ENE 21:58:11 27° SE
STARLINK-1229 3.7 21:52:31 10° NW 21:55:34 47° NNE 21:56:54 27° E
STARLINK-1144 4.4 21:52:35 10° WNW 21:56:22 34° SW 21:57:05 32° SSW
STARLINK-1270 3.7 21:53:24 10° NW 21:56:28 48° NNE 21:57:45 28° E
SPOT 5 4.1 21:53:31 18° SSW 21:57:01 38° W 22:02:01 10° NNW
STARLINK-1189 3.7 21:55:12 10° NW 21:58:15 49° NNE 21:59:28 29° E
Aureole 3 Rocket 4.4 21:52:23 10° N 21:58:39 84° E 22:03:54 25° SSE
STARLINK-1188 3.6 21:56:07 10° NW 21:59:10 50° NNE 22:00:22 30° E
ATLAS CENTAUR R/B 2.3 21:59:35 31° ESE 21:59:36 31° ESE 22:03:19 10° NE
STARLINK-1187 3.4 21:57:12 10° NW 22:00:15 54° NNE 22:01:14 36° E
Cosmos 1340 Rocket 4.0 21:57:36 10° N 22:01:17 32° ENE 22:02:31 26° ESE
STARLINK-1191 3.6 21:58:33 10° NW 22:01:36 51° NNE 22:02:39 33° E
STARLINK-1221 3.5 21:59:30 10° NW 22:02:33 52° NNE 22:03:35 34° E
ERS-1 Rocket 4.5 21:59:40 14° SSW 22:03:06 28° W 22:07:26 10° NW
STARLINK-1222 3.5 22:00:21 10° NW 22:03:24 52° NNE 22:04:23 35° E
NOSS 7 (A) 4.5 22:03:59 67° SE 22:04:00 67° SE 22:06:55 10° NE
Cosmos 1025 Rocket 3.1 22:02:58 40° SSE 22:04:13 57° E 22:08:27 10° NNE
STARLINK-1214 3.5 22:01:14 10° NW 22:04:18 53° NNE 22:05:15 36° E
Okean 2 4.5 22:02:00 17° SW 22:04:48 41° WNW 22:08:46 10° N
Thor Agena Rocket 3.7 21:59:41 10° NNE 22:04:56 60° ESE 22:07:12 33° SSE
Cosmos 2026 Rocket 4.2 22:00:23 19° SSW 22:05:03 72° W 22:11:27 10° N
EXPRESS MD2 4.3 22:01:26 10° W 22:05:20 71° N 22:13:30 10° ENE
ATLAS 2AS CENTAUR R/B 3.1 22:00:30 15° SSW 22:07:06 63° ESE 22:14:56 10° NE
Cosmos 1656 Rocket 3.8 22:04:50 31° S 22:07:23 57° ESE 22:12:51 10° NE
BREEZE M DEB (TANK) 2.5 22:04:23 10° W 22:07:40 55° NNW 22:08:33 29° NE
Cosmos 1553 Rocket 3.9 22:02:09 10° N 22:08:29 87° E 22:11:43 30° S
BREEZE-M DEB (TANK) 4.0 21:56:15 10° WNW 22:09:40 77° SSW 22:11:56 30° SE
Cosmos 1953 2.9 22:05:51 10° N 22:09:42 45° ENE 22:10:41 37° ESE
STARLINK-1228 3.2 22:06:41 10° WNW 22:10:11 76° NNE 22:11:08 45° ESE
NOSS 3-2 (A) 4.4 22:03:08 10° NW 22:10:30 55° WSW 22:15:11 26° S
Cosmos 1470 2.7 22:06:56 10° NNW 22:10:49 76° W 22:11:51 46° S
APEX 4.2 22:06:47 17° SSW 22:11:54 87° ESE 22:17:17 10° NNE
STARLINK-1235 3.0 22:09:24 10° WNW 22:12:38 73° NNE 22:13:12 55° E
Cosmos 2292 Rocket 4.2 22:13:24 28° E 22:13:26 28° E 22:16:19 10° NNE
Cosmos 968 Rocket 3.5 22:10:19 10° NNW 22:15:28 73° WSW 22:17:31 36° S
Cosmos 1455 Rocket 3.9 22:13:33 10° NNW 22:17:38 41° W 22:19:25 27° SW
Cosmos 1655 Rocket 4.0 22:15:02 31° SSE 22:18:05 68° E 22:24:19 10° NNE
SL-4 R/B 3.1 22:20:18 18° NE 22:20:18 18° NE 22:21:16 10° NNE
ATLAS 5 CENTAUR R/B 1.6 22:21:46 55° SSE 22:22:02 58° SE 22:24:25 10° NE
USA 238 DEB 4.4 22:15:27 10° NW 22:22:14 45° WSW 22:25:51 27° S
USA 238 4.4 22:15:33 10° NW 22:22:21 45° WSW 22:25:58 27° S
Cosmos 1758 3.6 22:20:17 10° NNW 22:24:19 62° W 22:25:25 43° SSW
Terra 3.4 22:23:15 17° SW 22:25:43 26° W 22:29:43 10° NW
SL-4 R/B 2.3 22:21:24 10° WSW 22:26:13 82° SSE 22:31:05 10° ENE
Cosmos 2228 4.2 22:23:37 10° N 22:27:22 30° ENE 22:28:36 25° ESE
STARLINK-1234 2.9 22:27:09 10° WNW 22:30:16 76° WSW 22:30:16 76° WSW
In-Cosmos 22 4.2 22:30:04 38° SSE 22:31:55 60° E 22:37:07 10° NNE
Cosmos 1503 Rocket 4.1 22:30:20 10° NNW 22:35:37 69° WSW 22:37:35 39° S
STARLINK-1233 4.4 22:31:46 10° WNW 22:35:49 50° NNE 22:39:12 14° E
Cosmos 2266 Rocket 4.0 22:33:43 35° SSE 22:36:21 68° E 22:42:22 10° NNE
STARLINK-1209 3.2 22:33:19 10° WNW 22:36:13 59° WSW 22:36:13 59° WSW
STARLINK-1204 4.3 22:36:46 10° WNW 22:40:49 53° NNE 22:43:59 16° E
SJ 16-02 4.0 22:41:31 10° NNE 22:43:11 12° NE 22:44:52 10° ENE
STARLINK-1238 4.2 22:41:45 10° WNW 22:45:50 55° NNE 22:48:47 18° E
Cosmos 1536 Rocket 3.9 22:45:43 37° SW 22:47:12 58° WNW 22:51:32 10° N
Cosmos 1674 3.0 22:48:20 48° ESE 22:48:32 48° E 22:52:12 10° NNE
STARLINK-1201 4.1 22:46:44 10° WNW 22:50:50 58° NNE 22:53:33 20° E
Cosmos 1271 Rocket 4.0 22:49:29 25° WSW 22:50:58 35° WNW 22:54:37 10° N
Cosmos 1354 Rocket 4.4 22:49:45 10° NNW 22:54:54 53° WSW 22:56:35 38° SSW
STARLINK-60 3.9 22:52:21 14° W 22:54:57 48° NNW 22:58:04 10° NE
Spot 4 4.3 22:53:29 37° SSW 22:54:59 51° W 22:59:44 10° NNW
STARLINK-1206 4.0 22:51:43 10° WNW 22:55:51 61° NNE 22:58:21 22° E
COSMOS 2455 2.8 22:52:50 31° SSW 22:55:52 83° ESE 23:01:56 10° NE
Cosmos 883 Rocket 4.4 22:50:12 10° N 22:56:22 89° WNW 22:58:57 37° S
USA 215 3.3 22:52:56 15° ESE 22:58:30 82° NE 23:05:05 10° NW
STARLINK-1205 3.9 22:56:41 10° WNW 23:00:49 64° NNE 23:03:07 25° E
Cosmos 1707 4.0 22:59:44 26° WSW 23:01:01 33° WNW 23:04:34 10° N
Cosmos 2297 Rocket 3.7 22:57:15 10° NNW 23:02:14 31° NE 23:07:00 11° ESE
Helios 1A 3.3 23:01:35 44° ESE 23:02:36 57° ENE 23:06:44 10° N
Lacrosse 4 Rocket 4.3 23:03:21 10° N 23:05:30 13° NE 23:07:38 10° ENE
STARLINK-1218 3.9 23:01:41 10° WNW 23:05:49 68° NNE 23:07:55 28° ESE
Cosmos 1726 2.8 23:03:28 10° NNW 23:06:59 41° W 23:07:20 40° WSW
Cosmos 1174 3.6 23:06:36 57° W 23:07:00 63° NW 23:10:45 10° NNE
ALOS 2 2.6 23:07:47 52° SSW 23:08:43 69° WSW 23:13:07 10° NNW
Timation 2 Rocket 4.0 23:03:32 10° NNW 23:09:53 76° ENE 23:12:54 32° SE
Cosmos 2058 Rocket 3.8 23:06:27 10° N 23:10:44 45° ENE 23:11:58 35° ESE
COSMOS 2487 3.2 23:07:28 10° NW 23:10:32 40° W 23:10:32 40° W
STARLINK-1254 3.8 23:06:39 10° WNW 23:10:48 72° NNE 23:12:41 31° ESE
CENTAUR R/B 3.8 23:07:05 10° NW 23:14:38 42° WSW 23:18:17 29° SSW
STARLINK-1231 3.7 23:11:37 10° WNW 23:15:47 76° NNE 23:17:27 35° ESE
Meteor 1-16 Rocket 4.5 23:10:39 10° NNW 23:16:00 53° W 23:17:49 37° SSW
Meteor 2-5 Rocket 3.8 23:14:12 41° SSE 23:16:04 65° E 23:21:39 10° NNE
STARLINK-1378 4.4 23:18:28 34° E 23:18:28 34° E 23:20:59 10° ENE
Cosmos 1867 4.2 23:12:39 10° NW 23:17:41 38° WSW 23:18:45 35° SW
ATLAS 3B R/B 2.7 23:11:22 10° NW 23:18:06 66° WSW 23:21:10 35° SSE
SL-14 R/B 3.9 23:19:11 38° ESE 23:19:26 39° E 23:23:03 10° NNE
FALCON 9 DEB 3.1 23:20:07 77° NE 23:20:07 77° NE 23:23:22 10° ENE
STARLINK-1232 3.6 23:16:37 10° WNW 23:20:47 81° NNE 23:22:15 39° ESE
Cosmos 1606 Rocket 3.5 23:16:28 10° NNW 23:20:48 75° W 23:21:37 56° SSW
STARLINK-1379 4.2 23:21:51 37° E 23:21:51 37° E 23:24:31 10° ENE
SeaSat 1 3.3 23:16:26 10° NNE 23:21:10 47° NW 23:24:20 20° WSW
Cosmos 1943 Rocket 4.5 23:17:59 10° W 23:22:04 20° NW 23:26:11 10° N
STARLINK-1329 4.2 23:23:14 39° E 23:23:14 39° E 23:25:59 10° ENE
Cosmos 2098 Rocket 4.4 23:20:08 33° SSW 23:23:43 82° W 23:31:16 10° N
STARLINK-29 3.7 23:24:02 39° WNW 23:24:49 51° NNW 23:27:58 10° NE
STARLINK-1208 3.5 23:21:34 10° WNW 23:25:44 86° NNE 23:27:00 44° ESE
STARLINK-1362 4.0 23:26:41 43° E 23:26:41 43° E 23:29:34 10° ENE
ATLAS CENTAUR R/B 2.8 23:26:08 10° NNW 23:28:10 30° NE 23:31:40 10° E
STARLINK-1373 3.8 23:30:05 48° ESE 23:30:05 48° ESE 23:33:10 10° ENE
NOSS 3-4 (A) 4.1 23:23:53 10° WSW 23:29:43 52° NW 23:36:01 10° NE
NOSS 3-4 (C) 4.1 23:24:01 10° WSW 23:29:49 53° NW 23:36:08 10° NE
RESURS DK-1 2.3 23:29:48 61° SSW 23:30:30 88° WNW 23:34:39 10° NNE
STARLINK-1365 3.7 23:31:12 52° ESE 23:31:12 52° ESE 23:34:26 10° ENE
STARLINK-1271 3.5 23:26:35 10° WNW 23:30:45 89° SSW 23:31:49 49° ESE
STARLINK-1390 3.7 23:33:34 52° ESE 23:33:34 52° ESE 23:36:48 10° ENE
Cosmos 2315 Rocket 4.2 23:28:25 10° NNW 23:34:29 59° W 23:36:59 35° SSW
Cosmos 2084 3.4 23:33:36 55° SSW 23:34:32 81° SE 23:39:01 10° NE
STARLINK-1154 3.5 23:31:34 10° WNW 23:35:43 84° SSW 23:36:35 55° SE
BREEZE-M R/B 3.6 23:31:45 23° SW 23:36:01 56° SSE 23:39:52 10° ENE
Cosmos 1626 2.1 23:36:00 63° ESE 23:36:12 65° E 23:39:54 10° NNE
Cosmos 1340 Rocket 4.4 23:34:21 10° NW 23:37:33 23° W 23:38:06 22° WSW
ATLAS CENTAUR R/B 2.7 23:35:42 18° WSW 23:38:28 37° NW 23:42:17 10° NNE
Cosmos 2369 Rocket 4.4 23:34:15 10° W 23:38:29 21° NW 23:42:43 10° N
Okean 1-7 Rocket 3.6 23:37:39 54° S 23:38:36 78° E 23:43:10 10° NNE
Cosmos 2227 Rocket 3.0 23:33:53 10° NNW 23:39:23 46° NE 23:43:29 17° ESE
STARLINK-1197 3.4 23:36:31 10° WNW 23:40:41 79° SSW 23:41:21 60° SE
Cosmos 1908 4.1 23:38:44 10° NNW 23:42:15 36° W 23:42:29 35° W
Nadezhda 2 Rocket 4.4 23:39:44 38° SSW 23:42:15 84° W 23:48:26 10° N
CZ-4 R/B 4.1 23:38:00 10° NNE 23:42:41 55° E 23:43:50 43° SSE
STARLINK-1198 3.4 23:41:30 10° WNW 23:45:38 74° SSW 23:46:07 64° SSE
Cosmos 1953 4.4 23:43:19 10° NW 23:45:42 15° W 23:46:22 15° W
Landsat 4 3.8 23:46:52 10° N 23:50:32 63° WNW 23:51:00 56° WSW
STARLINK-1199 3.5 23:46:30 10° WNW 23:50:38 69° SSW 23:50:56 65° S
Meteor 2-21 Rocket 4.4 23:50:06 38° S 23:52:39 83° E 23:58:52 10° N
STARLINK-1210 3.5 23:51:29 10° WNW 23:55:35 64° SW 23:55:41 63° SSW
